Content
SEND FEEDBACK

Daily
Averages
Monthly
Summary
United States of America

BLACK HAWK, SOUTH DAKOTA


Home > North America > United States > South Dakota
Elevation: 3352 feet     Latitude: 44 05N     Longitude: 103 16W

WEATHER
 
SELECT A DAY
Number of Records: 209,773;   Date Range: 1/1/95 - 12/17/14
 
SHARE

PRINT THIS DATA

[ ← Previous Day ]
WEATHER ALMANAC - JANUARY 6, 2013
[ Next Day → ]
[ °C ]   °F
Weather ElementAverageHighLow
Temperature31.3 °F46.9 °F (1:55 pm)19.9 °F (6:55 am)
Dewpoint14.5 °F25.3 °F (2:55 pm)9.5 °F (5:55 pm)
Humidity50.7 %67 % (6:55 am)32 % (5:55 pm)
Barometer30.02 in30.25 in (1:55 am)29.87 in (1:55 pm)
Wind Speed7.1 mph17.3 mph (9:55 am)
Wind Gust21.9 mph (9:55 am)
Weather ElementAverage
Visibility10 mi
Wind DirectionSSW (207 °)

Weather ElementTotal
Precipitation---
Heating Degree Days31.6 (Base 65)
Averaged from 23 records on January 6, 2013
WEATHER CONDITIONS BREAKOUT
WIND DIRECTION BREAKOUT
WEATHER BY HOUR - JANUARY 6, 2013
[ °C ]   °F
Local TimeTemperatureDewpointHumidityBarometerVisibilityWind DirectionWind SpeedGust SpeedPrecipitationEventsConditions
1:55 AM23.9 °F12.4 °F62 %30.25 in10.0 miWSW (250°)6.9 mphClear
2:55 AM23.4 °F11.8 °F61 %30.23 in10.0 miWSW (250°)5.8 mphClear
3:55 AM24.1 °F10.6 °F56 %30.21 in10.0 miWSW (240°)6.9 mphClear
4:55 AM23.4 °F9.9 °F56 %30.21 in10.0 miSSW (200°)6.9 mphClear
5:55 AM24.8 °F10.0 °F54 %30.19 in10.0 miSSW (210°)5.8 mphClear
6:55 AM19.9 °F10.6 °F67 %30.18 in10.0 miSSE (160°)11.5 mphClear
7:55 AM20.7 °F10.4 °F65 %30.14 in10.0 miSouth (170°)12.7 mphClear
8:55 AM22.5 °F11.3 °F62 %30.12 in10.0 miSSE (160°)5.8 mphClear
9:55 AM31.8 °F16.0 °F52 %30.04 in10.0 miSouth (170°)17.3 mph21.9 mphPartly Cloudy
10:55 AM34.2 °F16.0 °F47 %30.01 in10.0 miSouth (180°)12.7 mphClear
11:55 AM35.6 °F18.7 °F50 %29.95 in10.0 miSouth (170°)8.1 mphClear
12:55 PM40.3 °F21.4 °F47 %29.91 in10.0 miESE (110°)4.6 mphClear
1:55 PM46.9 °F23.4 °F40 %29.87 in10.0 miVariable5.8 mphClear
2:55 PM43.5 °F25.3 °F49 %29.88 in10.0 miNNE (20°)5.8 mphClear
3:55 PM37.0 °F21.4 °F53 %29.90 in10.0 miNNW (330°)8.1 mphClear
4:55 PM34.3 °F15.1 °F45 %29.91 in10.0 miEast (100°)4.6 mphClear
5:55 PM37.0 °F9.5 °F32 %29.91 in10.0 miNW (320°)5.8 mphClear
6:55 PM30.7 °F11.8 °F46 %29.94 in10.0 miWest (260°)3.5 mphClear
7:55 PM28.0 °F12.9 °F53 %29.94 in10.0 miWest (280°)5.8 mphClear
8:55 PM32.4 °F10.8 °F41 %29.93 in10.0 miWest (280°)4.6 mphPartly Cloudy
9:55 PM35.2 °F13.1 °F40 %29.89 in10.0 miWSW (250°)4.6 mphClear
10:55 PM35.8 °F15.3 °F43 %29.91 in10.0 miNorth (360°)4.6 mphPartly Cloudy
11:55 PM34.9 °F15.4 °F45 %29.92 in10.0 miWNW (290°)5.8 mphScattered Clouds
Hourly data recorded from KRCA, located miles away from Black Hawk, South Dakota







STORIES FROM OUR PARTNERS